Погода в Мариуполе

Погода в Мариуполе : погода сейчас, прогноз погоды и архив. Всё, что Вы хотите узнать о погоде в Мариуполе!

Поиск расширенной информации на нашем сайте:

Другие новости

Новости СМИ2

Главная страница сайта

Новости сайта

02.10.2013

Напоминаем, что на нашем новом сайте вы можете получить высокодетализированные прогнозы погоды по пунктам России, СНГ и мира (включающие важные для авиации метеовеличины, такие как направление и скорость ветра, видимость, явления погоды, количество и форма облачности, нижняя и верхняя граница облачности), а также ознакомиться с разнообразными материалами по авиационной метеорологии и подборкой полезных ссылок на эту тему.

Сайт Метеоцентр.Азия посвящён разработке технологий оптимизации авиаметеорологического обслуживания, включая проектирование и перспективное создание нескольких автоматизированных авиаметеорологических систем:
- система выпуска высокодетальных прогностических карт явлений погоды для нижнего воздушного пространства по России и ближнему зарубежью;
- система верификации прогнозов TAF (выпускаемых синоптиками официальных АМСГ РФ и ближнего зарубежья) и AUTOTAF (выпускаемых сайтом Метеоцентр.Азия) - выявление ошибок, онлайн-сопоставление с фактической погодой METAR, автоматическое внесение коррективов в прогнозы при резком отклонении фактической погоды от прогноза, подсчёт оправдываемости прогнозов по элементам и в целом;
- система обработки, анализа и отображения авиаметеорологической информации для применения провайдерами метеорологической информации.

Рекомендуем: Обучение наращиванию ногтей в ONS - обучение наращиванию ногтей в москве.

Погода в Мариуполе - сегодня

Время (UTC), дата Ветер
(°,м/с) 
Видим.   Явления Облачность Т
(°С)
Тd
(°С)
f(%) Тe
(°С)
Pmin
(гПа)
dP
(гПа)
Po
(мм)
O2
(г/м3)
Тmin Tmax R s Состояние
почвы
06 26.05.15 090 (В) 20000 м    3/0 средняя 
[Ac trans]
+20.9 +16.4 75 +32  1008.2  0.4  750  277  +17.8         
09 26.05.15 090 (В) 20000 м    3/0 средняя 
[Ac trans]
+21.8 +17.6 77 +35  1008.4  0.2  750  276           
12 26.05.15 090 (В) 20000 м    3/1 1000 м верхняя 
[Cu med, cong|Ci fib]
+22.3 +19 82 +39  1008.1  -0.3  750  275           
15 26.05.15 180 (Ю) 20000 м    3/1 1000 м верхняя 
[Cu med, cong|Ci fib]
+21.8 +19.3 86 +39  1007.7  -0.4  750  275           
18 26.05.15 230 (ЮЗ) 20000 м    3/0 верхняя 
[Ci]
+20 +19 94 +36  1008.1  0.3  750  277    +23       
21 26.05.15 230 (ЮЗ) 20000 м    3/0 верхняя 
[Ci fib]
+18.2 +16.3 89 +30  1008.4  0.3  750  280           
00 27.05.15 180 (Ю) 20000 м    5/5 1000 м 
[Cu hum]
+18.8 +15 79 +28  1008.8  0.4  751  280           
03 27.05.15 180 (Ю) 10 км    8/0 средняя 
[Ac cast]
+18.4 +14.6 79 +27  1008.4  -0.4  750  280           
06 27.05.15 190 (Ю) 10 км    9/4 300 м средняя 
[Cu med, cong|Ac As]
+19.6 +15.2 76 +29  1009.6  1.2  751  279  +17.4         
09 27.05.15 160 (Ю) 10 км    9/6 630 м кучево-дожд., средняя 
[Cb cap|Ac As]
+21.1 +15.9 72 +31    -0.2  751  277           
12 27.05.15 160 (Ю) 10 км    6/4 600 м верхняя 
[Cu med, cong|Ci fib]
+21.7 +14.7 64 +30  1008.5  -0.8  750  277           
15 27.05.15 150 (ЮВ) 10 км    8/0 верхняя 
[Cs]
+20.6 +16.5 77 +32  1007.3  -1.2  749  277           
18 27.05.15 160 (Ю) 10 км    6/0 верхняя 
[Ci]
+18.7 +15.6 82 +30  1006.6  -0.8  749  279    +22.2       
21 27.05.15 340 (С) 4000 м  дымка  4/0 верхняя 
[Ci fib]
+16.3 +14.5 89 +25  1005.1  -1.6  748  281           
00 28.05.15 020 (С) 4000 м  дымка  8/0 верхняя 
[Cs]
+16.1 +14.2 89 +24  1003.9  -1.2  747  281           
03 28.05.15 020 (С) 10 км    8/0 верхняя 
[Cs]
+18.2 +13.1 72 +25  1002.6  -1.2  746  279           
06 28.05.15 070 (В) 20000 м    9/1 1000 м средняя, верхняя 
[Cu med, cong|Ac lent|Cc]
+22.4 +13 55 +28  1002  -0.5  746  275  +15.5         
09 28.05.15 090 (В) 10 км    10/3 1000 м средняя 
[Cu med, cong|Ac As]
+23.9 +16.2 62 +35  1001.1  -0.8  745  273           
12 28.05.15 090 (В) 10 км    6/3 600 м кучево-дожд., средняя 
[Cb calv|Ac trans]
+23.6 +15.3 60 +33  999.9  -1.2  744  273           
15 28.05.15 200 (Ю) 10 км  в посл. час гроза{ливн. осадки}  8/5 750 м кучево-дожд., средняя 
[Cb calv|Ac trans]
+18.6 +13.5 72 +26  1000.8  0.7  745  278           
18 28.05.15 070 (В) 1{19}  10 км  {гроза, ливн. осадки}  9/5 450 м кучево-дожд., средняя 
[Cb calv|Ac As]
+19 +16.5 85 +33  1001.7  745  277    +24.5     
21 28.05.15 150 (ЮВ) 10  20000 м  в посл. час ливневой дождь  9/9 500 м кучево-дожд. 
[Cb cap]
+18.9 +16.7 87 +31  1000.9  -0.8  745  277           
00 29.05.15 160 (Ю) 10  20000 м  {ливн. осадки}  9/8 720 м кучево-дожд., верхняя 
[Cb calv|Cs]
+18.9 +15.3 80 +28  1000.1  -0.8  744  277         
03 29.05.15 190 (Ю) 10  10 км  в посл. час ливневой дождь  10/10 480 м кучево-дожд. 
[Cb cap]
+18.2 +16.7 91 +30  999.7  -0.5  744  277           
06 29.05.15 180 (Ю) 8{18}  10 км  слаб. ливневой дождь  9/8 450 м кучево-дожд., верхняя 
[Cb cap|Cc]
+19.6 +16.4 82 +31  1001  1.4  745  276  +17.6       
Время (UTC), дата Ветер
(°,м/с) 
Видим.   Явления Облачность Т
(°С)
Тd
(°С)
f(%) Тe
(°С)
Pmin
(гПа)
dP
(гПа)
Po
(мм)
O2
(г/м3)
Тmin Tmax R s Состояние
почвы

Для получения пояснительной информации подведите курсор к названию столбца.

ПОГОДА в Мариуполе - архив

Всё, что Вы хотите узнать о погоде в Мариуполе - удобно и подробно!

Выберите нужную дату (начиная с 1 января 2013* года) и нажмите кнопку "Найти".
Будут отображены архивные сводки погоды по пункту Мариуполь, начиная с указанной даты.


Отображать данные в формате CSV (для использования в таблицах Excel)


Внимание! Наш архив погоды предназначен исключительно для личного некоммерческого использования в познавательных целях. Если Вам необходимы официальные справки о состоянии погоды (для производственных, юридических, коммерческих и т.п. целей), обращайтесь в органы Росгидромета.

*Примечание: данная дата относится к архиву по метеостанциям СССР (Россия, СНГ, Балтия).
Архив по метеостанциям Зарубежной Европы и Азии (кроме Китая) хранится 10 дней, по другим регионам земного шара (Китай, Африка, Америка, Австралия, Океания) - 1 день.

Мариуполь - район местоположения метеостанции


Название, широта, долгота, высота метеостанции:
Мариуполь (город) 47°ш. 37.5°д. 70 м над ур. моря [Украина]

Дополнительная информация

В oтличие oт бoльшинства пoгoдных сайтoв мы публикуем пoдрoбную метеoинфoрмацию в детальнoм прoфессиoнальнoм фoрмате.

Характеристики температуры и влажнoсти вoздуха измеряются на высoте 2 м в тени вдали oт зданий и деревьев.
Скoрoсть ветра измеряется на высoте 10 м (на урoвне рoста челoвека скoрoсть ветра ниже в 1.5-2 раза). Если метеoстанция нахoдится в гoрoде или в лесу, тo скoрoсть ветра занижена на 2-4 м/с пo сравнению с oткрытым местoм. Скoрoсть ветра над акватoриями крупных рек и oзёр, а также на вершинах хoлмoв на 2-5 м/с выше, чем в oбычных услoвиях.
Атмoсфернoе давление в разных тoчках местнoсти мoжет значительнo oтличаться oт давления на метеoстанции, в зависимoсти oт услoвий рельефа (при пoдъёме на 10 м давление пoнижается примернo на 1 мм рт.ст.).